Location: Nianha
(10.8000°N, 4.6333°W)
Time: 09:18:27
(UTC+00:00)

ALOS - Pass Details

Date: 14 November 2019
Orbit: 684 x 685 km, 97.8° (Epoch: 19 January)

Event Time Altitude Azimuth Distance (km) Brightness Sun altitude
Rises 04:54:30 0° 26° (NNE) 3,039 5.7 -19.4°
Reaches altitude 10° 04:56:54 10° 35° (NE) 2,124 5.0 -18.9°
Maximum altitude 05:01:08 34° 100° (E) 1,109 4.0 -17.9°
Drops below altitude 10° 05:05:20 10° 166° (SSE) 2,124 5.2 -16.9°
Sets 05:07:44 0° 175° (S) 3,039 5.9 -16.3°
